Merrill, WI

10:41 PM CDT on May 21, 2018 (GMT -0500)
Merrill Municipal

Weather History for KRRL - June, 2013

Change the Weather History Date:

Monday, June 24, 2013

  Actual Average Record
Temperature  
Mean Temperature 68 °F -  
Max Temperature 81 °F 76 °F 98 °F (1937)
Min Temperature 56 °F 51 °F 37 °F (1985)
Cooling Degree Days 4    
Growing Degree Days 18 (Base 50)    
Moisture  
Dew Point 66 °F    
Average Humidity 84    
Maximum Humidity 100    
Minimum Humidity 61    
Precipitation  
Precipitation 0.00 in - - ()
Sea Level Pressure  
Sea Level Pressure 29.91 in    
Wind  
Wind Speed 4 mph (SW)    
Max Wind Speed 16 mph    
Max Gust Speed 21 mph    
Visibility 9 miles    
Events Fog    
Averages and records for this station are not official NWS values.
T = Trace of Precipitation, MM = Missing Value Source: NWS Daily Summary

Daily Weather History Graph

Daily Weather History Graph

Search for Another Location

Airport or City:

Astronomy

Jun. 24, 2013 Rise Set
Actual Time 5:12 AM CDT 8:50 PM CDT
Civil Twilight 4:34 AM CDT 9:28 PM CDT
Nautical Twilight 3:44 AM CDT 10:18 PM CDT
Astronomical Twilight 2:37 AM CDT 11:25 PM CDT
Moon 9:45 PM CDT (6/24) 6:44 AM CDT (6/24)
Length of Visible Light 16h 53m
Length of Day
15h 38m
Full, 98% of the Moon is Illuminated
Jun 24
Full
Jun 29
Last Quarter
Jul 8
New
Jul 15
First Quarter
Jul 22
Full

Hourly Weather History & Observations

Time (CDT) Temp. Heat Index Dew Point Humidity Pressure Visibility Wind Dir Wind Speed Gust Speed Precip Events Conditions
12:15 AM 67.8 °F - 64.0 °F 88% 29.93 in 10.0 mi SW 5.8 mph - N/A   Clear
12:35 AM 67.5 °F - 64.0 °F 89% 29.93 in 10.0 mi SW 4.6 mph - N/A   Clear
12:55 AM 66.7 °F - 63.9 °F 90% 29.93 in 10.0 mi SW 4.6 mph - N/A   Clear
1:15 AM 65.5 °F - 63.0 °F 92% 29.93 in 10.0 mi Calm Calm - N/A   Clear
1:35 AM 65.7 °F - 63.1 °F 92% 29.93 in 10.0 mi West 3.5 mph - N/A   Clear
1:55 AM 64.6 °F - 62.6 °F 93% 29.93 in 10.0 mi Calm Calm - N/A   Clear
2:15 AM 62.4 °F - 61.3 °F 96% 29.93 in 10.0 mi Calm Calm - N/A   Clear
2:35 AM 61.9 °F - 61.2 °F 97% 29.93 in 10.0 mi Calm Calm - N/A   Clear
2:55 AM 61.2 °F - 60.4 °F 97% 29.93 in 10.0 mi Calm Calm - N/A   Clear
3:15 AM 60.3 °F - 60.1 °F 99% 29.93 in 5.0 mi Calm Calm - N/A   Clear
3:35 AM 60.8 °F - 60.4 °F 99% 29.93 in 7.0 mi Calm Calm - N/A   Clear
3:55 AM 61.2 °F - 61.0 °F 99% 29.93 in 5.0 mi Calm Calm - N/A   Clear
4:15 AM 58.5 °F - 58.3 °F 99% 29.93 in 1.2 mi Calm Calm - N/A   Mist
4:35 AM 58.6 °F - 58.6 °F 100% 29.93 in 1.0 mi Calm Calm - N/A   Mist
4:55 AM 58.5 °F - 58.5 °F 100% 29.94 in 1.2 mi Calm Calm - N/A   Mist
5:15 AM 57.0 °F - 57.0 °F 100% 29.93 in 0.2 mi Calm Calm - N/A Fog Fog
5:35 AM 56.7 °F - 56.7 °F 100% 29.93 in 5.0 mi Calm Calm - N/A   Clear
5:55 AM 58.1 °F - 58.1 °F 100% 29.93 in 0.5 mi Calm Calm - N/A Fog Fog
6:15 AM 59.0 °F - 59.0 °F 100% 29.94 in 0.2 mi Calm Calm - N/A Fog Fog
6:35 AM 60.1 °F - 60.1 °F 100% 29.95 in 1.5 mi Calm Calm - N/A   Mostly Cloudy
6:55 AM 61.5 °F - 61.5 °F 100% 29.95 in 5.0 mi Calm Calm - N/A   Scattered Clouds
7:15 AM 63.5 °F - 63.0 °F 98% 29.96 in 10.0 mi Calm Calm - N/A   Scattered Clouds
7:35 AM 65.1 °F - 64.4 °F 98% 29.96 in 10.0 mi Calm Calm - N/A   Scattered Clouds
7:55 AM 67.5 °F - 66.0 °F 95% 29.97 in 10.0 mi SW 3.5 mph - N/A   Mostly Cloudy
8:15 AM 68.7 °F - 66.6 °F 93% 29.98 in 10.0 mi SW 4.6 mph - N/A   Overcast
8:35 AM 70.0 °F - 67.1 °F 91% 29.98 in 10.0 mi WSW 3.5 mph - N/A   Overcast
8:55 AM 70.9 °F - 67.3 °F 88% 29.96 in 10.0 mi Calm Calm - N/A   Mostly Cloudy
9:15 AM 72.5 °F - 67.6 °F 85% 29.96 in 10.0 mi Calm Calm - N/A   Clear
9:35 AM 73.6 °F - 68.0 °F 83% 29.95 in 10.0 mi Calm Calm - N/A   Clear
9:55 AM 75.2 °F - 66.9 °F 75% 29.96 in 10.0 mi Calm Calm - N/A   Clear
10:15 AM 76.1 °F - 66.9 °F 73% 29.96 in 10.0 mi SSW 3.5 mph - N/A   Clear
10:35 AM 77.9 °F - 67.3 °F 70% 29.95 in 10.0 mi SW 4.6 mph - N/A   Scattered Clouds
10:55 AM 77.4 °F - 66.0 °F 68% 29.95 in 10.0 mi Calm Calm - N/A   Scattered Clouds
11:15 AM 78.4 °F - 66.2 °F 66% 29.95 in 10.0 mi SSW 5.8 mph - N/A   Scattered Clouds
11:35 AM 80.1 °F 82.4 °F 67.3 °F 65% 29.95 in 10.0 mi SSW 4.6 mph - N/A   Scattered Clouds
11:55 AM 79.5 °F - 66.7 °F 65% 29.95 in 10.0 mi SSW 9.2 mph - N/A   Mostly Cloudy
12:35 PM 79.3 °F - 67.3 °F 66% 29.95 in 10.0 mi SW 8.1 mph - N/A   Mostly Cloudy
12:55 PM 81.5 °F 83.9 °F 67.1 °F 61% 29.94 in 10.0 mi SSW 11.5 mph - N/A   Scattered Clouds
1:15 PM 79.5 °F - 67.6 °F 67% 29.94 in 10.0 mi SW 11.5 mph 18.4 mph N/A   Scattered Clouds
1:35 PM 78.8 °F - 68.2 °F 70% 29.93 in 10.0 mi SSW 13.8 mph - N/A   Mostly Cloudy
1:55 PM 79.7 °F - 69.1 °F 70% 29.92 in 10.0 mi SSW 12.7 mph 17.3 mph N/A   Mostly Cloudy
2:15 PM 78.8 °F - 68.9 °F 72% 29.90 in 10.0 mi SW 12.7 mph - N/A   Mostly Cloudy
2:35 PM 79.3 °F - 69.6 °F 72% 29.89 in 10.0 mi SSW 10.4 mph 16.1 mph N/A   Mostly Cloudy
2:55 PM 79.3 °F - 69.6 °F 72% 29.89 in 10.0 mi SW 12.7 mph 17.3 mph N/A   Mostly Cloudy
3:15 PM 78.3 °F - 69.4 °F 74% 29.88 in 10.0 mi SSW 8.1 mph 18.4 mph N/A   Mostly Cloudy
3:35 PM 78.4 °F - 69.1 °F 73% 29.88 in 10.0 mi SW 16.1 mph 20.7 mph N/A   Mostly Cloudy
3:55 PM 78.3 °F - 69.1 °F 73% 29.88 in 10.0 mi SW 11.5 mph - N/A   Mostly Cloudy
4:15 PM 78.8 °F - 68.4 °F 70% 29.88 in 10.0 mi WSW 12.7 mph 18.4 mph N/A   Scattered Clouds
4:35 PM 79.7 °F - 69.4 °F 71% 29.87 in 10.0 mi WSW 10.4 mph - N/A   Scattered Clouds
4:55 PM 78.3 °F - 68.0 °F 71% 29.86 in 10.0 mi West 11.5 mph 18.4 mph N/A   Scattered Clouds
5:15 PM 78.8 °F - 68.9 °F 72% 29.87 in 10.0 mi WSW 9.2 mph - N/A   Scattered Clouds
5:35 PM 77.9 °F - 68.5 °F 73% 29.87 in 10.0 mi WSW 9.2 mph - N/A   Scattered Clouds
5:55 PM 78.1 °F - 68.9 °F 73% 29.87 in 10.0 mi WSW 5.8 mph - N/A   Scattered Clouds
6:15 PM 77.9 °F - 68.7 °F 73% 29.87 in 10.0 mi WSW 6.9 mph - N/A   Scattered Clouds
6:35 PM 77.2 °F - 68.9 °F 76% 29.88 in 10.0 mi WSW 8.1 mph - N/A   Mostly Cloudy
6:55 PM 77.0 °F - 69.8 °F 78% 29.87 in 10.0 mi SW 4.6 mph - N/A   Overcast
7:15 PM 77.0 °F - 69.6 °F 78% 29.87 in 10.0 mi WSW 5.8 mph - N/A   Scattered Clouds
7:35 PM 76.3 °F - 68.5 °F 77% 29.86 in 10.0 mi SSW 8.1 mph - N/A   Scattered Clouds
7:55 PM 75.4 °F - 68.9 °F 80% 29.86 in 10.0 mi WSW 6.9 mph - N/A   Scattered Clouds
8:15 PM 74.7 °F - 68.7 °F 82% 29.86 in 10.0 mi SW 5.8 mph - N/A   Scattered Clouds
8:35 PM 73.9 °F - 68.9 °F 84% 29.86 in 10.0 mi WSW 6.9 mph - N/A   Scattered Clouds
8:55 PM 73.0 °F - 68.9 °F 87% 29.85 in 10.0 mi SSW 3.5 mph - N/A   Clear
9:15 PM 72.1 °F - 68.9 °F 89% 29.85 in 10.0 mi Calm Calm - N/A   Clear
9:35 PM 71.8 °F - 68.7 °F 90% 29.85 in 10.0 mi Calm Calm - N/A   Clear
9:55 PM 71.6 °F - 68.4 °F 89% 29.86 in 10.0 mi SW 3.5 mph - N/A   Clear
10:15 PM 71.1 °F - 68.2 °F 91% 29.87 in 10.0 mi SW 5.8 mph - N/A   Scattered Clouds
10:35 PM 70.9 °F - 67.6 °F 89% 29.87 in 10.0 mi SW 5.8 mph - N/A   Scattered Clouds
10:55 PM 70.7 °F - 66.7 °F 87% 29.87 in 10.0 mi SW 6.9 mph - N/A   Clear
11:15 PM 70.0 °F - 66.2 °F 88% 29.88 in 10.0 mi SW 6.9 mph - N/A   Clear
11:35 PM 69.8 °F - 66.2 °F 88% 29.88 in 10.0 mi SW 4.6 mph - N/A   Clear
11:55 PM 69.3 °F - 65.8 °F 89% 29.88 in 10.0 mi SW 5.8 mph - N/A   Clear